Vertical_Velocity
-1 -3 -1 -2 -3 -1 1 -0 2 2 -5 -3 1 1 2 2 -2 1 -0 -0 -1 -2 1 -1 2 2 1 5 3 -8 -2 4 0 4 -2 -1 -1 -1 -2 -0 -2 2 -0 -1 -3 -2 -1
-0 -0 -1 -2 -1 0 -4 -3 0 0 -1 2 -5 -2 1 2 2 -2 -1 2 -0 -2 1 0 1 3 3 8 0 0 1 4 2 -1 1 -1 -1 -0 -0 0 -4 4 0 -2 3 1 -3
-4 -1 1 2 0 1 2 2 -4 2 0 -2 -3 -2 3 -1 2 1 0 1 1 -1 1 1 1 4 9 -18 4 5 1 -3 -2 0 2 -1 -0 1 6 -3 2 -2 1 -2 3 0 -3
-3 -2 -2 -1 1 3 2 3 4 -1 0 0 -2 -3 -0 3 -3 -1 0 3 1 1 -0 1 2 4 5 2 3 2 2 1 -1 0 -0 0 5 -2 3 -3 0 -3 -1 -2 2 -0 2
5 2 -1 2 -1 -2 -2 1 2 1 -0 0 -2 0 1 -0 2 -2 1 2 0 1 -2 -0 7 5 -4 3 3 5 2 -0 0 1 -1 2 1 -3 1 5 -3 5 -6 0 -4 -2 -4
5 2 1 8 -2 -1 -3 -4 -3 5 6 0 1 1 1 4 2 0 -0 0 -2 2 -1 8 5 -1 2 8 6 3 1 0 1 -1 1 2 -4 -4 7 6 -0 -4 -5 1 4 4 -2
-8 -10 -8 -9 -3 4 3 -6 -7 -3 1 8 3 3 7 2 7 2 -7 1 -0 1 8 7 4 -3 1 2 2 1 2 1 2 1 -3 -5 -3 11 -4 -2 -4 1 -4 -3 4 0 -6
-8 -10 -10 -11 -11 -11 -10 -4 1 2 -1 2 4 8 10 10 9 7 -7 1 5 5 -1 1 0 0 2 2 1 1 0 2 -1 -1 -2 1 3 1 -2 2 -1 -1 -0 4 -1 9 -27
-9 -0 -6 -6 -5 -4 -7 -4 -1 1 2 -1 -1 10 9 11 5 -2 5 6 -2 3 -0 0 -1 -2 0 -3 2 5 -0 2 -1 -3 1 -1 -1 3 -2 -0 -1 1 -6 0 -6 -0 -6
1 -3 -2 -0 -4 -4 -4 0 1 1 1 1 -1 1 7 7 6 8 1 -1 11 0 -3 1 2 2 -2 4 1 -5 -3 -2 -1 3 -1 -4 3 -0 -1 -0 -2 -6 3 -3 -2 -11 -8
-0 -5 -4 -1 -3 -5 -1 1 -1 -0 0 2 1 4 7 1 9 2 9 18 -1 8 -9 7 -1 12 2 -2 13 -2 -2 -1 -0 3 1 2 2 -2 -1 3 -6 -6 -6 1 -4 -6 -19
-6 -8 -0 -1 -3 -5 0 -1 0 -3 -0 6 1 5 4 4 8 12 7 26 -2 -1 -12 -3 -3 -0 2 2 3 -0 -3 -2 4 -3 -2 2 -6 -1 -1 2 -6 -7 -1 -0 -3 3 -35
-3 1 -3 3 -1 0 1 4 -1 -2 3 9 -1 -2 -0 0 0 7 9 30 12 -17 -2 -2 -2 2 1 -1 -2 -2 -0 3 -1 -4 2 -3 4 0 3 -5 -4 -6 0 -6 -12 2 -11
0 -0 1 7 -1 2 -0 3 -1 -1 2 -1 2 -5 1 3 0 21 18 19 -4 3 2 -2 1 0 0 1 0 -3 -1 1 1 -2 -7 -4 4 4 9 -3 -1 -1 -9 -5 -3 -3 -3
-3 -1 -1 7 1 1 -1 -1 1 1 -1 3 25 1 1 4 1 17 14 -1 -2 8 8 4 -1 -1 1 -1 -1 1 1 1 -4 -2 -4 -8 7 6 3 1 -0 2 -1 -2 -11 -4 -7
-5 1 5 7 0 -0 -1 -2 -0 4 -4 1 -0 -1 -3 5 23 8 4 0 2 3 4 -2 -1 -2 1 1 3 1 -2 -2 0 -0 -1 2 -13 4 -3 0 13 -4 -2 -1 1 -7 -11
-6 -4 2 4 2 -0 -3 -4 -4 -0 -0 3 7 5 2 6 3 7 1 3 2 1 0 -2 -4 -2 1 1 2 -1 1 -1 4 -1 -6 -6 -5 7 11 6 -2 -2 6 4 3 -2 -0
-5 -3 3 1 -1 0 -1 -7 1 4 7 12 10 -2 14 14 -3 -5 5 1 7 0 1 2 -1 -1 0 1 1 1 0 -1 -3 -2 -2 0 -4 -1 8 2 1 -0 -2 0 -2 13 -2
-4 3 -1 -1 -3 -2 -4 -6 -3 5 6 3 -7 9 8 -6 -1 0 2 -1 2 -0 -1 -1 -2 -2 1 2 -2 2 -0 -6 1 -3 0 -0 -0 -3 -3 0 3 1 16 14 6 7 -8
-0 6 -1 2 -3 -8 -5 -3 -3 -9 6 2 3 13 3 -12 3 5 1 0 -1 -3 -2 -2 -1 1 -0 4 1 3 -6 1 -0 -0 -1 -1 0 -3 -7 0 2 -3 5 10 29 -3 15
4 1 1 4 -1 0 -1 -3 -4 -1 1 -4 -2 8 8 -2 -4 4 11 -1 1 1 5 -1 2 1 2 1 -2 -2 0 0 1 -3 -1 -2 -2 -6 3 -2 -0 4 1 1 1 3 2
4 1 1 2 -2 3 0 -0 -5 -5 4 5 1 -1 -1 3 5 -7 -5 -1 -1 -1 2 1 1 -1 3 2 -3 -2 -0 3 -2 -3 -2 -4 0 -2 0 5 3 3 1 -2 0 -2 -7
-2 6 2 -1 0 -4 7 -1 8 -2 -6 1 3 1 -2 3 9 -2 1 0 -1 -0 1 1 -1 2 3 -3 -4 1 -0 1 -3 -0 -2 -2 0 -2 2 2 5 3 -1 -2 -2 -3 -3
-5 6 5 -1 3 -4 0 2 -3 2 -1 -1 3 1 3 -2 -12 2 4 -1 0 -1 2 1 -0 0 1 -4 0 -1 3 -0 -1 -1 -3 1 -0 0 1 6 6 2 -1 2 4 5 1
-5 -1 6 4 -0 2 -3 -1 1 -5 -0 2 1 -2 6 1 -1 1 1 -5 1 5 2 1 1 0 -1 -3 -1 -1 3 -0 -4 1 -4 -2 -2 0 2 17 12 4 -2 -1 5 -1 -5
-1 -2 4 -0 4 -8 0 -2 -8 3 -1 1 -3 -0 -2 4 -2 -6 -3 -4 1 0 1 1 0 -1 -2 -6 -3 1 2 -2 -1 -0 -3 -0 -0 1 0 1 2 4 -1 -1 -2 -4 -3
-1 1 -2 1 -3 6 -12 -9 -1 0 -8 -6 -2 -1 2 1 5 0 1 2 -1 6 4 -1 1 -3 -4 -2 -3 1 1 -2 1 -2 -2 -1 -1 -1 2 -1 1 5 1 4 9 -8 1
-3 1 -3 1 -1 -7 5 -3 -9 -4 1 2 -6 -3 -1 3 0 -1 -2 -2 -3 0 1 1 -2 -6 -3 -3 -0 1 -0 -4 1 -1 -3 0 -3 0 -0 3 3 2 1 3 0 -0 -1
-2 -1 0 -2 -7 -1 -7 -0 -1 3 1 -3 -2 -0 -3 -3 -1 -2 -2 1 0 -0 0 -2 -3 -1 1 -1 1 -1 -2 -1 -3 -2 -3 0 -3 -3 -2 1 1 2 3 4 5 5 1
Height
5691 5688 5685 5681 5677 5674 5671 5668 5665 5663 5662 5661 5659 5659 5659 5660 5663 5666 5669 5672 5676 5679 5680 5684 5687 5692 5698 5704 5708 5712 5715 5719 5724 5728 5731 5734 5738 5741 5742 5745 5746 5746 5751 5753 5756 5760 5763
5686 5682 5677 5675 5671 5668 5664 5660 5658 5656 5653 5652 5651 5651 5650 5652 5654 5657 5660 5663 5668 5671 5673 5677 5680 5684 5690 5695 5701 5705 5708 5712 5716 5720 5724 5727 5730 5733 5736 5738 5739 5741 5743 5745 5749 5753 5754
5681 5676 5672 5667 5663 5660 5655 5652 5648 5645 5643 5640 5639 5639 5640 5642 5645 5648 5651 5655 5659 5663 5667 5670 5674 5677 5682 5686 5693 5699 5702 5705 5709 5712 5717 5720 5723 5726 5729 5730 5732 5734 5737 5738 5741 5744 5745
5673 5669 5662 5657 5653 5648 5644 5639 5636 5631 5629 5627 5626 5625 5628 5630 5634 5638 5641 5646 5651 5655 5659 5664 5668 5671 5674 5680 5686 5691 5695 5699 5702 5706 5710 5713 5716 5718 5721 5723 5725 5727 5728 5731 5733 5734 5736
5663 5658 5652 5646 5639 5632 5626 5622 5618 5614 5611 5609 5609 5611 5613 5617 5622 5626 5630 5636 5641 5646 5652 5657 5662 5665 5669 5673 5679 5684 5689 5693 5696 5699 5703 5706 5709 5712 5714 5715 5717 5719 5720 5722 5724 5725 5727
5655 5648 5641 5634 5626 5616 5606 5596 5587 5584 5583 5584 5587 5591 5596 5602 5608 5614 5619 5625 5631 5638 5644 5651 5655 5660 5665 5669 5673 5677 5682 5687 5690 5693 5696 5700 5703 5705 5707 5706 5708 5710 5712 5713 5715 5717 5717
5646 5639 5628 5618 5608 5599 5589 5577 5563 5552 5547 5552 5558 5566 5574 5583 5593 5600 5606 5615 5624 5631 5638 5643 5648 5653 5658 5663 5667 5671 5675 5680 5684 5688 5690 5693 5696 5698 5697 5699 5700 5701 5703 5704 5705 5705 5707
5637 5628 5618 5607 5595 5583 5568 5551 5536 5526 5520 5523 5529 5538 5551 5563 5578 5586 5593 5605 5614 5622 5628 5633 5641 5646 5651 5657 5661 5665 5670 5675 5678 5681 5684 5687 5689 5690 5690 5691 5692 5692 5692 5694 5694 5693 5692
5627 5615 5605 5592 5576 5561 5541 5524 5512 5503 5500 5501 5507 5515 5527 5544 5559 5570 5582 5595 5604 5612 5619 5626 5633 5639 5646 5651 5656 5659 5664 5667 5671 5675 5677 5680 5682 5682 5682 5682 5682 5682 5682 5681 5680 5681 5682
5613 5601 5587 5574 5557 5537 5519 5503 5491 5482 5479 5482 5489 5496 5509 5524 5541 5556 5570 5582 5595 5602 5610 5620 5625 5631 5639 5645 5650 5653 5657 5663 5666 5668 5670 5672 5673 5673 5673 5672 5670 5671 5671 5669 5667 5665 5668
5601 5588 5572 5555 5537 5518 5501 5486 5475 5469 5467 5469 5475 5484 5495 5509 5528 5546 5566 5578 5584 5594 5599 5610 5616 5625 5632 5637 5645 5648 5651 5655 5658 5661 5663 5665 5664 5664 5663 5663 5661 5661 5658 5655 5652 5651 5651
5591 5575 5557 5537 5519 5503 5487 5475 5467 5465 5463 5465 5466 5473 5484 5499 5522 5539 5556 5569 5575 5583 5590 5600 5609 5618 5625 5630 5637 5641 5645 5648 5651 5653 5655 5656 5655 5656 5654 5650 5645 5642 5641 5637 5633 5633 5631
5580 5562 5543 5523 5505 5490 5477 5468 5463 5462 5461 5460 5460 5465 5476 5493 5516 5535 5550 5557 5564 5572 5586 5596 5605 5613 5618 5625 5630 5634 5638 5642 5645 5646 5647 5647 5647 5645 5642 5637 5633 5628 5623 5617 5614 5611 5612
5571 5553 5531 5511 5494 5478 5468 5462 5460 5460 5460 5459 5459 5460 5471 5490 5512 5528 5539 5548 5557 5570 5582 5592 5600 5606 5614 5619 5624 5628 5632 5635 5636 5637 5636 5637 5638 5634 5631 5625 5622 5616 5610 5605 5598 5598 5598
5563 5543 5522 5501 5484 5470 5461 5457 5459 5458 5457 5455 5456 5460 5471 5486 5505 5519 5532 5542 5554 5566 5578 5588 5595 5602 5608 5614 5619 5622 5625 5628 5630 5629 5629 5626 5626 5624 5620 5617 5612 5608 5602 5598 5589 5589 5583
5557 5536 5515 5493 5477 5464 5456 5454 5456 5457 5457 5456 5455 5460 5472 5486 5506 5517 5531 5541 5553 5563 5573 5581 5590 5598 5603 5608 5612 5616 5620 5623 5621 5621 5619 5618 5616 5615 5614 5608 5602 5595 5593 5587 5583 5578 5574
5552 5530 5509 5488 5473 5460 5453 5453 5455 5457 5458 5457 5460 5466 5476 5489 5503 5516 5527 5538 5551 5559 5567 5576 5586 5593 5599 5602 5606 5611 5615 5614 5614 5614 5613 5608 5608 5611 5605 5601 5592 5586 5581 5576 5573 5569 5564
5549 5527 5506 5485 5470 5459 5453 5454 5455 5459 5460 5460 5464 5472 5481 5492 5505 5515 5527 5540 5550 5557 5563 5573 5581 5588 5593 5598 5601 5606 5607 5606 5609 5607 5604 5603 5599 5599 5596 5590 5583 5577 5573 5568 5563 5561 5557
5547 5527 5505 5486 5472 5460 5455 5456 5457 5462 5462 5465 5471 5480 5488 5498 5507 5519 5530 5542 5551 5555 5560 5568 5576 5583 5589 5593 5598 5600 5602 5602 5602 5600 5599 5597 5594 5590 5586 5585 5577 5568 5564 5559 5555 5550 5547
5548 5528 5507 5491 5478 5467 5462 5464 5465 5466 5467 5473 5478 5486 5494 5503 5514 5524 5535 5544 5549 5553 5557 5563 5572 5579 5586 5590 5594 5598 5598 5599 5598 5595 5593 5591 5590 5585 5582 5577 5569 5559 5553 5551 5547 5545 5545
5545 5529 5512 5498 5490 5480 5474 5472 5472 5472 5473 5479 5487 5493 5501 5510 5519 5528 5537 5543 5547 5551 5557 5562 5569 5576 5582 5587 5590 5593 5593 5595 5593 5591 5589 5586 5585 5581 5577 5571 5564 5558 5551 5546 5543 5542 5541
5545 5531 5516 5500 5493 5488 5482 5477 5477 5477 5481 5489 5495 5500 5508 5515 5524 5532 5537 5541 5545 5550 5556 5562 5568 5573 5579 5584 5587 5589 5590 5591 5590 5590 5586 5584 5584 5578 5573 5567 5562 5556 5552 5549 5545 5545 5544
5547 5532 5518 5503 5495 5491 5489 5484 5483 5488 5492 5496 5499 5505 5512 5519 5526 5534 5539 5543 5547 5551 5556 5561 5567 5572 5577 5580 5584 5585 5587 5588 5588 5587 5585 5584 5580 5576 5570 5564 5559 5557 5555 5553 5550 5547 5546
5548 5534 5519 5504 5497 5493 5493 5491 5494 5498 5502 5503 5506 5510 5517 5525 5531 5535 5540 5543 5546 5552 5557 5561 5566 5570 5574 5578 5581 5582 5583 5586 5586 5585 5585 5583 5579 5575 5571 5567 5562 5559 5556 5555 5553 5553 5551
5549 5536 5521 5506 5498 5497 5498 5498 5500 5503 5505 5508 5512 5517 5522 5528 5532 5535 5539 5543 5548 5553 5557 5561 5564 5568 5572 5577 5578 5579 5581 5584 5585 5584 5584 5583 5581 5578 5573 5569 5570 5564 5561 5559 5558 5557 5556
5549 5537 5523 5508 5501 5501 5502 5504 5507 5509 5511 5513 5517 5521 5526 5530 5534 5537 5541 5545 5549 5553 5557 5560 5563 5566 5570 5573 5575 5576 5578 5581 5583 5583 5584 5583 5582 5581 5579 5576 5573 5572 5570 5569 5568 5567 5566
5549 5537 5525 5511 5503 5505 5507 5507 5508 5511 5515 5516 5520 5523 5528 5531 5535 5540 5543 5546 5549 5553 5556 5559 5562 5565 5568 5569 5571 5574 5575 5578 5580 5581 5583 5584 5584 5582 5581 5580 5578 5576 5576 5576 5577 5579 5575
5549 5538 5526 5514 5505 5504 5507 5509 5512 5515 5517 5518 5521 5524 5528 5531 5534 5538 5543 5546 5548 5552 5555 5558 5562 5564 5565 5566 5568 5570 5572 5574 5577 5580 5581 5583 5583 5582 5583 5582 5582 5580 5581 5582 5582 5580 5580
5548 5538 5527 5515 5504 5502 5504 5506 5510 5513 5516 5519 5523 5524 5528 5531 5536 5539 5542 5545 5548 5551 5554 5557 5560 5561 5561 5563 5565 5566 5568 5571 5574 5577 5578 5581 5582 5582 5583 5584 5583 5583 5582 5582 5582 5583 5583